Volver al catálogo

NIMBUS 5

ActivoMeteoSSO
NORAD 6305·PAYLOAD·🇺🇸 United States

Lanzado Dec 11, 1972 desde Vandenberg Space Force Base

Loading…

Próximos Pases (próximas 24 horas)

TLE

ActualizadoSource: Space-Track

Época: Sep 14, 2026, 04:34 UTC

1 06305U 72097A   26257.19075521 -.00000024  00000-0  32898-4 0  9992
2 06305  99.7935 153.6890 0007775 294.3686 229.2286 13.44258960636686

Sigue NIMBUS 5 en tiempo real con AllMySat

Download on the App Store